Regional Weather Roundup
Issued by NWS

Home | Current Version | Previous Version | Text Only | Print | Product List | Glossary Off
Versions: 1 2 3 4 5 6 7 8 9 10 11 12 13 14 15 16 17 18 19 20 21 22 23 24 25 26 27 28 29 30 31 32 33 34 35 36 37 38 39 40 41 42 43 44 45 46 47 48 49 50

000
ASUS43 KBIS 221420
RWRND

NORTH DAKOTA REGIONAL WEATHER ROUNDUP
NATIONAL WEATHER SERVICE BISMARCK ND
900 AM CDT WED OCT 22 2014

NOTE: "FAIR" INDICATES FEW OR NO CLOUDS BELOW 12,000 FEET WITH NO
SIGNIFICANT WEATHER AND/OR OBSTRUCTIONS TO VISIBILITY.


NDZ001>003-009>011-017-221500-
NORTHWEST NORTH DAKOTA

CITY           SKY/WX    TMP DP  RH WIND       PRES   REMARKS
WILLISTON      CLEAR     48  41  76 SW10      29.81R
MINOT          MOCLDY    53  44  71 SW21G31   29.72R
MINOT AFB      PTCLDY    52  47  83 W18       29.71R
$$

NDZ018>021-031>035-040>046-221500-
SOUTHWEST NORTH DAKOTA

CITY           SKY/WX    TMP DP  RH WIND       PRES   REMARKS
BISMARCK       CLOUDY    56  46  69 W14G22    29.82R
DICKINSON      MOCLDY    47  41  80 W13       29.85R
GARRISON         N/A     53  46  77 W15G28    29.77R
HETTINGER ARPT CLOUDY    47  40  76 W15       29.90R
$$

NDZ004>008-012>016-024-026-027-054-221500-
NORTHEAST NORTH DAKOTA

CITY           SKY/WX    TMP DP  RH WIND       PRES   REMARKS
GRAND FORKS    PTCLDY    54  42  64 S17G29    29.81R
GRND FRKS AFB  PTCLDY    54  44  68 S18G29    29.79S
DEVILS LAKE    MOCLDY    57  43  58 S8        29.71F
$$

NDZ022-023-025-028>030-036>039-047>053-221500-
SOUTHEAST NORTH DAKOTA

CITY           SKY/WX    TMP DP  RH WIND       PRES   REMARKS
FARGO          CLEAR     54  41  61 SE23G40   29.85S
JAMESTOWN      MOCLDY    54  41  61 S17G26    29.78R
$$




USA.gov is the U.S. government's official web portal to all federal, state and local government web resources and services.